Powrót do katalogu

OPS 5390

AktywnyNawigacjaSSO
NORAD 11389·PAYLOAD·🇺🇸 United States

Wystrzelony Jun 6, 1979 z Vandenberg Space Force Base

Loading…

Następne Przeloty (najbliższe 24 godziny)

TLE

ŚwieżeSource: Space-Track

Epoka: Sep 14, 2026, 03:33 UTC

1 11389U 79050A   26257.14851392  .00000083  00000-0  49719-4 0  9993
2 11389  98.6397 211.0108 0010768 238.7719 121.2409 14.29366237388414

Śledź OPS 5390 w czasie rzeczywistym z AllMySat

Download on the App Store